Regional Weather Roundup
Issued by NWS

Home | Current Version | Previous Version | Graphics & Text | Print | Product List | Glossary On
Versions: 1 2 3 4 5 6 7 8 9 10 11 12 13 14 15 16 17 18 19 20 21 22 23 24 25 26 27 28 29 30 31 32 33 34 35 36 37 38 39 40 41 42 43 44 45 46 47 48 49 50
000
ASUS43 KMKX 240011
RWRWI

WISCONSIN REGIONAL WEATHER ROUNDUP
NATIONAL WEATHER SERVICE MILWAUKEE/SULLIVAN WI
600 PM CST THU FEB 23 2017

NOTE: "FAIR" INDICATES FEW OR NO CLOUDS BELOW 12,000 FEET WITH NO
SIGNIFICANT WEATHER AND/OR OBSTRUCTIONS TO VISIBILITY.

WIZ001-002-006>008-014>016-023>028-240100-
NORTHWEST WISCONSIN

CITY           SKY/WX    TMP DP  RH WIND       PRES   REMARKS
SUPERIOR ARPT  CLOUDY    29  23  76 N6        29.98S WCI  23
6HR MIN TEMP:  29; 6HR MAX TEMP:  32;

ASHLAND        CLOUDY    29  23  78 NW6       29.96S WCI  23
6HR MIN TEMP:  29; 6HR MAX TEMP:  34;

HAYWARD        MOCLDY    29  21  72 N6        29.93R WCI  23
6HR MIN TEMP:  29; 6HR MAX TEMP:  35;

SIREN          CLOUDY    30  23  74 N6        29.96R WCI  24
6HR MIN TEMP:  29; 6HR MAX TEMP:  34;

CUMBERLAND     CLOUDY    30  21  69 N10       29.92R WCI  21
RICE LAKE      CLOUDY    33  25  73 N10       29.93R WCI  24
6HR MIN TEMP:  33; 6HR MAX TEMP:  37;

CHETEK         CLOUDY    34  25  70 N3        29.92R
6HR MIN TEMP:  34; 6HR MAX TEMP:  40;

LADYSMITH      CLOUDY    34  26  74 N9        29.92R WCI  26
6HR MIN TEMP:  34; 6HR MAX TEMP:  39;

EAU CLAIRE     CLOUDY    37  25  61 N9        29.88R WCI  30
6HR MIN TEMP:  37; 6HR MAX TEMP:  41;

MENOMONIE      CLOUDY    37  26  67 N9        29.90R WCI  30
6HR MIN TEMP:  37; 6HR MAX TEMP:  41;

NEW RICHMOND   CLOUDY    32  24  71 N13       29.92S WCI  22
6HR MIN TEMP:  32; 6HR MAX TEMP:  38;

OSCEOLA        CLOUDY    31  24  75 N10       29.97R WCI  22
6HR MIN TEMP:  31; 6HR MAX TEMP:  36;

$$

WIZ003>005-009-010-017-018-240100-
NORTH CENTRAL WISCONSIN

CITY           SKY/WX    TMP DP  RH WIND       PRES   REMARKS
MANITOWISH WTR CLOUDY    28  27  98 N6        29.89S WCI  21
6HR MIN TEMP:  28; 6HR MAX TEMP:  31;

ARBOR VITAE    CLOUDY    32  28  85 N6          N/A  WCI  26
6HR MIN TEMP:  32; 6HR MAX TEMP:  37;

WOODRUFF       CLOUDY    32  28  85 N6          N/A  WCI  26
6HR MIN TEMP:  32; 6HR MAX TEMP:  37;

RHINELANDER    CLOUDY    33  25  72 N5        29.88R WCI  29
6HR MIN TEMP:  33; 6HR MAX TEMP:  39;

EAGLE RIVER    PTCLDY    30  24  79 N7        29.88S WCI  23
6HR MIN TEMP:  30; 6HR MAX TEMP:  34;

LAND O LAKES   MOCLDY    30  26  84 N7        29.90S WCI  23
6HR MIN TEMP:  30; 6HR MAX TEMP:  35; 6HR PCP:  0.12;

PHILLIPS       CLOUDY    31  25  81 N6        29.89R WCI  25
6HR MIN TEMP:  31; 6HR MAX TEMP:  35;

TOMAHAWK       CLOUDY    32  24  70 N3        29.89R
6HR MIN TEMP:  32; 6HR MAX TEMP:  40;

MEDFORD        CLOUDY    36  26  67 N8        29.86R WCI  29
6HR MIN TEMP:  36; 6HR MAX TEMP:  40;

MERRILL        NOT AVBL
$$

WIZ029-030-035-036-043>047-240100-
CENTRAL WISCONSIN

CITY           SKY/WX    TMP DP  RH WIND       PRES   REMARKS
WAUSAU         CLOUDY    39  23  52 NE3       29.86R
6HR MIN TEMP:  38; 6HR MAX TEMP:  42;

MOSINEE        CLOUDY    39  27  60 N5        29.87R
MARSHFIELD     CLOUDY    39  25  57 NE9       29.83S WCI  33
6HR MIN TEMP:  39; 6HR MAX TEMP:  42;

STEVENS POINT  CLOUDY    38  24  55 N5        29.85F WCI  35
6HR MIN TEMP:  38; 6HR MAX TEMP:  41;

WAUPACA        CLOUDY    42  29  60 NE6       29.86F
6HR MIN TEMP:  42; 6HR MAX TEMP:  47;

WAUTOMA        MOCLDY    39  31  72 E7        29.86R WCI  34
6HR MIN TEMP:  39; 6HR MAX TEMP:  45;

WISC RAPIDS    MOCLDY    41  25  53 NE8       29.84F
6HR MIN TEMP:  41; 6HR MAX TEMP:  46;

CAMP DOUGLAS   CLOUDY    43  28  56 NE8       29.82R
$$

WIZ011>013-019>022-031-037>040-048>050-240100-
NORTHEAST WISCONSIN

CITY           SKY/WX    TMP DP  RH WIND       PRES   REMARKS
ANTIGO         CLOUDY    35  25  68 NE6       29.87R WCI  30
6HR MIN TEMP:  35; 6HR MAX TEMP:  40;

SHAWANO        CLOUDY    39  29  67 SE9       29.89R WCI  33
6HR MIN TEMP:  39; 6HR MAX TEMP:  46;

OCONTO         MOCLDY    34  26  71 E6        29.92R WCI  29
6HR MIN TEMP:  34; 6HR MAX TEMP:  43;

STURGEON BAY   MOCLDY    35  26  69 MISG      29.92R
6HR MIN TEMP:  35; 6HR MAX TEMP:  41;

GREEN BAY      CLOUDY    38  31  76 E10       29.90R WCI  31
6HR MIN TEMP:  38; 6HR MAX TEMP:  43;

MANITOWOC      CLOUDY    36  28  73 NE8       29.90F WCI  30
6HR MIN TEMP:  36; 6HR MAX TEMP:  40;

APPLETON       CLOUDY    39  25  56 NE7       29.85R WCI  34
CLINTONVILLE   CLOUDY    39  28  65 E10       29.88R WCI  32
OSHKOSH        CLOUDY    37  30  75 E10       29.86R WCI  30
6HR MIN TEMP:  37; 6HR MAX TEMP:  41;

$$

WIZ032>034-041-042-053>061-240100-
SOUTHWEST WISCONSIN

CITY           SKY/WX    TMP DP  RH WIND       PRES   REMARKS
LA CROSSE      CLOUDY    44  30  57 NE12      29.82R
6HR MIN TEMP:  43; 6HR MAX TEMP:  49;

SPARTA         MOCLDY    42  30  63 NE10      29.83S
6HR MIN TEMP:  42; 6HR MAX TEMP:  45;

VIROQUA        CLOUDY    41  31  68 NE13      29.79R
6HR MIN TEMP:  41; 6HR MAX TEMP:  44;

BOSCOBEL       LGT RAIN  45  34  65 E9        29.77S
6HR MIN TEMP:  45; 6HR MAX TEMP:  48; 6HR PCP: TRACE;

PRAIRIE DU CHI DRIZZLE   43  34  71 E7        29.76R
6HR MIN TEMP:  43; 6HR MAX TEMP:  47;

PLATTEVILLE    CLOUDY    41  40  95 NE16      29.73S
6HR MIN TEMP:  41; 6HR MAX TEMP:  45; 6HR PCP:  0.01;

$$

WIZ056-057-062-063-064-067-068-240100-
SOUTH CENTRAL WISCONSIN

CITY           SKY/WX    TMP DP  RH WIND       PRES   REMARKS
REEDSBURG      CLOUDY    40  33  75 E14       29.80S WCI  32
6HR MIN TEMP:  40; 6HR MAX TEMP:  46;

BARABOO/DELLS  CLOUDY    39  32  75 NE9       29.80S WCI  33
6HR MIN TEMP:  39; 6HR MAX TEMP:  45;

LONE ROCK      LGT RAIN  42  34  73 E16       29.79S
6HR MIN TEMP:  42; 6HR MAX TEMP:  47; 6HR PCP: TRACE;

MINERAL POINT  LGT RAIN  41  39  93 NE16      29.75S
MADISON        LGT RAIN  38  34  85 E13       29.80S WCI  30
6HR MIN TEMP:  38; 6HR MAX TEMP:  44; 6HR PCP:  0.01;

MIDDLETON      CLOUDY    39  36  87 NE12      29.80R WCI  32
6HR MIN TEMP:  39; 6HR MAX TEMP:  45;

WATERTOWN      DRIZZLE   35  34  96 NE14G20   29.81S WCI  26
6HR MIN TEMP:  35; 6HR MAX TEMP:  43;

MONROE         CLOUDY    36  36 100 NE16G22   29.74F WCI  26
JANESVILLE     CLOUDY   N/A N/A N/A E14G20    29.78S
$$

WIZ051-052-058>065-066-070>072-240100-
SOUTHEAST WISCONSIN

CITY           SKY/WX    TMP DP  RH WIND       PRES   REMARKS
MILWAUKEE      LGT RAIN  36  31  82 NE16G22   29.84R WCI  26
6HR MIN TEMP:  36; 6HR MAX TEMP:  41; 6HR PCP:  0.02;

WAUKESHA       RAIN      34  30  86 NE13      29.83F WCI  25
MILWAUKEE/TIMM LGT RAIN  34  28  80 NE12G25   29.83F WCI  25
RACINE         LGT RAIN  36  31  82 NE15      29.85R WCI  27
6HR MIN TEMP:  36; 6HR MAX TEMP:  40; 6HR PCP:  0.01;

KENOSHA        LGT RAIN  36  32  85 NE13      29.82F WCI  27
6HR MIN TEMP:  36; 6HR MAX TEMP:  42; 6HR PCP:  0.01;

FOND DU LAC    CLOUDY    37  29  72 E12       29.86R WCI  29
6HR MIN TEMP:  37; 6HR MAX TEMP:  42;

SHEBOYGAN      CLOUDY    35  28  75 NE9       29.89R WCI  28
6HR MIN TEMP:  35; 6HR MAX TEMP:  41;

WEST BEND      FLURRIES  34  32  93 NE10      29.85S WCI  26
JUNEAU         CLOUDY    36  31  83 NE12G18   29.82F WCI  28
6HR MIN TEMP:  36; 6HR MAX TEMP:  42;

$$

LSZ147-162-240100-
LAKE SUPERIOR

STATION/POSITION TIME  TEMP    WIND        PRES    WAVE
                       AIR SEA DIR/SP/G            HT/PER
                 (UTC) (F)     (DEG/KT/KT) (MB)    (FT/S)
DEVILS ISLAND    0000   33     320/ 14/ 15 1015.1S
PORT WING        2340   32     320/ 11/ 13 1014.9S
SAXON HARBOR     2340   32     310/  9/ 10 1014.2S
$$

LMZ867-665-643>646-240100-
LAKE MICHIGAN

STATION/POSITION TIME  TEMP    WIND        PRES    WAVE
                       AIR SEA DIR/SP/G            HT/PER
                 (UTC) (F)     (DEG/KT/KT) (MB)    (FT/S)
CHAMBERS ISLAND  2340   34      30/ 10/ 14 1012.9R
NORTHPORT PIER   2340   34      20/  5/  7 1013.2R
SISTER BAY       2305   35      30/  8/ 11   N/A
KEWAUNEE LAKESHO 2348   36      6



USA.gov is the U.S. government's official web portal to all federal, state and local government web resources and services.